Weather History for Dayton, OH

Change the Weather History Date:

Monday, June 24, 2013

  Actual Average Record
Temperature  
Mean Temperature 76 °F 73 °F  
Max Temperature 85 °F 83 °F 96 °F (1910)
Min Temperature 67 °F 63 °F 46 °F (1972)
Degree Days  
Heating Degree Days 0 0  
Month to date heating degree days 11 22  
Since 1 June heating degree days 11 22  
Since 1 July heating degree days 5457 5642  
Cooling Degree Days 11 8  
Month to date cooling degree days 150 139  
Year to date cooling degree days 281 209  
Since 1 June cooling degree days 150 139  
Growing Degree Days 25 (Base 50)    
Moisture  
Dew Point 67 °F    
Average Humidity 73    
Maximum Humidity 90    
Minimum Humidity 55    
Precipitation  
Precipitation T in 0.14 in 1.09 in (2004)
Month to date precipitation 2.56 3.36  
Year to date precipitation 16.86 20.40  
Snow  
Snow 0.00 in 0.00 in 0.00 in ()
Month to date snowfall 0.0 0.0  
Since 1 June snowfall 0.0 0.0  
Since 1 July snowfall 36.3 23.3  
Snow Depth 0.00 in    
Sea Level Pressure  
Sea Level Pressure 30.09 in    
Wind  
Wind Speed 9 mph (SSW)    
Max Wind Speed 20 mph    
Max Gust Speed 23 mph    
Visibility 8 miles    
Events      
T = Trace of Precipitation, MM = Missing Value Source: NWS Daily Summary

Daily Weather History Graph

Daily Weather History Graph

Search for Another Location

Airport:

Trip Planner

Search our weather history database for the weather conditions in past years. The results will help you decide how hot, cold, wet, or windy it might be!

Date:

Astronomy

Jun. 24, 2013 Rise Set
Actual Time 6:09 AM EDT 9:09 PM EDT
Civil Twilight 5:36 AM EDT 9:42 PM EDT
Nautical Twilight 4:54 AM EDT 10:23 PM EDT
Astronomical Twilight 4:06 AM EDT 11:12 PM EDT
Moon 10:11 PM EDT (6/24) 7:35 AM EDT (6/24)
Length of Visible Light 16h 05m
Length of Day
15h 00m
Full, 98% of the Moon is Illuminated
Jun 24
Full
Jun 30
Last Quarter
Jul 8
New
Jul 15
First Quarter
Jul 22
Full

Hourly Weather History & Observations

Time (EDT) Temp. Heat Index Dew Point Humidity Pressure Visibility Wind Dir Wind Speed Gust Speed Precip Events Conditions
12:56 AM 71.1 °F - 66.0 °F 84% 30.11 in 9.0 mi SSW 4.6 mph - N/A   Scattered Clouds
1:56 AM 71.1 °F - 66.0 °F 84% 30.11 in 8.0 mi South 6.9 mph - N/A   Scattered Clouds
2:56 AM 70.0 °F - 66.0 °F 87% 30.10 in 7.0 mi South 5.8 mph - N/A   Partly Cloudy
3:56 AM 69.1 °F - 64.9 °F 87% 30.10 in 6.0 mi SSW 3.5 mph - N/A   Partly Cloudy
4:56 AM 69.1 °F - 64.9 °F 87% 30.09 in 7.0 mi SSW 5.8 mph - N/A   Clear
5:56 AM 69.1 °F - 64.9 °F 87% 30.09 in 7.0 mi South 4.6 mph - N/A   Scattered Clouds
6:56 AM 70.0 °F - 64.9 °F 84% 30.11 in 6.0 mi South 3.5 mph - N/A   Haze
7:56 AM 71.1 °F - 66.0 °F 84% 30.12 in 5.0 mi South 6.9 mph - N/A   Haze
8:56 AM 73.9 °F - 68.0 °F 82% 30.14 in 6.0 mi South 9.2 mph - N/A   Haze
9:56 AM 78.1 °F - 69.1 °F 74% 30.14 in 8.0 mi SW 11.5 mph - N/A   Scattered Clouds
10:56 AM 80.1 °F 82.7 °F 68.0 °F 67% 30.14 in 9.0 mi WSW 11.5 mph - N/A   Mostly Cloudy
11:56 AM 81.0 °F 83.3 °F 66.9 °F 62% 30.15 in 10.0 mi West 15.0 mph 23.0 mph N/A   Overcast
12:56 PM 79.0 °F - 66.9 °F 66% 30.14 in 10.0 mi WSW 13.8 mph - 0.00 in   Mostly Cloudy
1:56 PM 81.0 °F 83.3 °F 66.9 °F 62% 30.11 in 10.0 mi SW 8.1 mph - N/A   Mostly Cloudy
2:56 PM 82.9 °F 87.0 °F 70.0 °F 65% 30.07 in 10.0 mi SSW 9.2 mph - N/A   Mostly Cloudy
3:56 PM 84.0 °F 87.8 °F 69.1 °F 61% 30.05 in 10.0 mi SW 13.8 mph 18.4 mph N/A   Mostly Cloudy
4:56 PM 84.0 °F 86.5 °F 66.9 °F 56% 30.04 in 10.0 mi SW 15.0 mph - N/A   Mostly Cloudy
5:56 PM 82.0 °F 84.1 °F 66.0 °F 58% 30.04 in 10.0 mi SW 11.5 mph - N/A   Mostly Cloudy
6:56 PM 82.9 °F 85.0 °F 66.0 °F 56% 30.03 in 10.0 mi SW 11.5 mph - N/A   Mostly Cloudy
7:56 PM 82.0 °F 84.1 °F 66.0 °F 58% 30.04 in 10.0 mi SW 9.2 mph - N/A   Scattered Clouds
8:56 PM 79.0 °F - 68.0 °F 69% 30.04 in 10.0 mi SW 6.9 mph - N/A   Scattered Clouds
9:56 PM 77.0 °F - 69.1 °F 76% 30.03 in 10.0 mi SW 8.1 mph - N/A   Scattered Clouds
10:56 PM 75.9 °F - 69.1 °F 79% 30.06 in 8.0 mi SW 9.2 mph - N/A   Mostly Cloudy
11:56 PM 73.0 °F - 68.0 °F 84% 30.07 in 9.0 mi SW 5.8 mph - N/A   Mostly Cloudy